FW6239 Weather Reports


time (UTC)temp
C
wind
direction
speed
KPH
gust
KPH
rain 1hr
cm
rain 24hr
cm
rain mn
cm
humidity
%
barometer
mb
20260906194556 37 132 6.4 16.1 0.00 0.00 0.00 36 1014.2
20260906193056 37 89 4.8 12.9 0.00 0.00 0.00 36 1014.5
20260906191552 37 288 4.8 14.5 0.00 0.00 0.00 36 1014.7
20260906190134 37 32 3.2 12.9 0.00 0.00 0.00 38 1014.9
20260906184558 36 253 3.2 11.3 0.00 0.00 0.00 39 1015.2
20260906183106 36 349 6.4 12.9 0.00 0.00 0.00 39 1015.3
20260906181553 36 307 1.6 11.3 0.00 0.00 0.00 39 1015.7
20260906180050 36 98 1.6 12.9 0.00 0.00 0.00 39 1016.1
20260906174600 36 0 1.6 14.5 0.00 0.00 0.00 42 1016.3
20260906173102 35 169 6.4 17.7 0.00 0.00 0.00 42 1016.7
20260906171554 35 96 1.6 11.3 0.00 0.00 0.00 42 1016.9
20260906170100 35 31 6.4 14.5 0.00 0.00 0.00 44 1017.2
20260906164553 35 55 1.6 9.7 0.00 0.00 0.00 45 1017.3
20260906163057 34 343 4.8 14.5 0.00 0.00 0.00 46 1017.4
20260906161553 34 344 3.2 12.9 0.00 0.00 0.00 46 1017.3
20260906160052 34 352 4.8 11.3 0.00 0.00 0.00 46 1017.4
20260906154604 34 295 3.2 11.3 0.00 0.00 0.00 46 1017.3
20260906153057 33 309 1.6 8.0 0.00 0.00 0.00 50 1017.4
20260906151558 32 244 1.6 6.4 0.00 0.00 0.00 51 1017.1
20260906150101 31 197 3.2 6.4 0.00 0.00 0.00 54 1017.1
20260906144557 30 213 0.0 6.4 0.00 0.00 0.00 59 1017.1
20260906143055 29 142 3.2 8.0 0.00 0.00 0.00 59 1017.0
20260906141553 28 159 3.2 6.4 0.00 0.00 0.00 64 1017.0
20260906140051 27 134 1.6 6.4 0.00 0.00 0.00 67 1017.0
20260906134558 26 100 0.0 6.4 0.00 0.00 0.00 69 1016.8
20260906133116 25 0 0.0 1.6 0.00 0.00 0.00 73 1016.9
20260906131600 23 287 0.0 1.6 0.00 0.00 0.00 78 1016.7
20260906130110 22 0 0.0 1.6 0.00 0.00 0.00 82 1016.8
20260906124557 22 0 0.0 0.0 0.00 0.00 0.00 84 1016.4
20260906123057 21 0 0.0 1.6 0.00 0.00 0.00 83 1016.2
20260906121558 21 0 0.0 0.0 0.00 0.00 0.00 83 1016.0
20260906120054 21 0 0.0 3.2 0.00 0.00 0.00 83 1015.6
20260906114601 21 0 0.0 0.0 0.00 0.00 0.00 84 1015.3
20260906113101 21 0 0.0 0.0 0.00 0.00 0.00 84 1015.0
20260906111555 21 0 0.0 0.0 0.00 0.00 0.00 83 1015.0
20260906104557 21 0 0.0 0.0 0.00 0.00 0.00 82 1015.2
20260906103056 21 0 0.0 0.0 0.00 0.00 0.00 81 1015.2
20260906101556 21 0 0.0 0.0 0.00 0.00 0.00 81 1015.2
20260906100053 21 0 0.0 0.0 0.00 0.00 0.00 80 1015.2
20260906094607 21 0 0.0 0.0 0.00 0.00 0.00 80 1015.1
20260906093118 22 0 0.0 0.0 0.00 0.00 0.00 80 1014.9
20260906091554 22 0 0.0 0.0 0.00 0.00 0.00 79 1015.0
20260906090134 22 0 0.0 0.0 0.00 0.00 0.00 78 1015.0
20260906084616 22 0 0.0 3.2 0.00 0.00 0.00 78 1015.1
20260906083057 22 0 0.0 0.0 0.00 0.00 0.00 77 1015.0
20260906081600 22 0 0.0 0.0 0.00 0.00 0.00 77 1015.0
20260906080105 22 0 0.0 0.0 0.00 0.00 0.00 75 1014.8
20260906074559 23 0 0.0 0.0 0.00 0.00 0.00 75 1014.7
20260906073055 23 0 0.0 0.0 0.00 0.00 0.00 74 1014.6
20260906071557 23 0 0.0 0.0 0.00 0.00 0.00 73 1014.5
20260906070056 23 0 0.0 0.0 0.00 0.00 0.00 71 1014.6
20260906064552 24 0 0.0 0.0 0.00 0.00 0.00 70 1014.7
20260906063059 25 0 0.0 0.0 0.00 0.00 0.00 70 1014.5
20260906061606 25 0 0.0 0.0 0.00 0.00 0.00 68 1014.7
20260906060055 25 0 0.0 0.0 0.00 0.00 0.00 67 1014.9
20260906054601 26 0 0.0 0.0 0.00 0.00 0.00 67 1014.9
20260906053110 26 138 0.0 1.6 0.00 0.00 0.00 66 1014.8
20260906051554 26 0 0.0 3.2 0.00 0.00 0.00 67 1014.9
20260906050053 26 0 0.0 0.0 0.00 0.00 0.00 67 1014.9
20260906044604 26 0 0.0 0.0 0.00 0.00 0.00 65 1014.9
20260906043058 27 0 0.0 0.0 0.00 0.00 0.00 63 1014.9
20260906041558 27 0 0.0 0.0 0.00 0.00 0.00 61 1014.9
20260906040055 28 0 0.0 3.2 0.00 0.00 0.00 61 1014.7
20260906034550 28 132 0.0 4.8 0.00 0.00 0.00 59 1014.5
20260906033059 28 128 0.0 4.8 0.00 0.00 0.00 59 1014.4
20260906031553 28 150 1.6 8.0 0.00 0.00 0.00 60 1014.1
20260906030055 27 0 0.0 0.0 0.00 0.00 0.00 62 1014.2
20260906024613 28 0 0.0 1.6 0.00 0.00 0.00 61 1014.2
20260906023104 28 98 1.6 3.2 0.00 0.00 0.00 61 1013.8
20260906021555 28 106 0.0 3.2 0.00 0.00 0.00 58 1013.6
20260906020053 29 0 0.0 4.8 0.00 0.00 0.00 59 1013.3
20260906014559 30 0 0.0 0.0 0.00 0.00 0.00 55 1013.2
20260906013058 30 0 0.0 0.0 0.00 0.00 0.00 54 1013.0
20260906011600 31 0 0.0 1.6 0.00 0.00 0.00 53 1012.9
20260906010126 31 0 0.0 1.6 0.00 0.00 0.00 51 1012.9
20260906004555 32 90 1.6 4.8 0.00 0.00 0.00 48 1012.8
20260906003054 33 0 0.0 3.2 0.00 0.00 0.00 45 1012.8
20260906001606 34 155 0.0 4.8 0.00 0.00 0.00 43 1012.8
20260906000101 35 188 3.2 9.7 0.00 0.00 0.00 41 1012.8
20260905234600 36 177 4.8 14.5 0.00 0.00 0.00 39 1012.8
20260905233055 36 131 6.4 12.9 0.00 0.00 0.00 37 1012.9
20260905231552 37 146 9.7 20.9 0.00 0.00 0.00 36 1012.8
20260905230122 37 192 8.0 17.7 0.00 0.00 0.00 35 1012.8
20260905224603 37 224 6.4 17.7 0.00 0.00 0.00 36 1012.8
20260905223053 37 176 6.4 17.7 0.00 0.00 0.00 36 1012.7
20260905221557 37 202 8.0 17.7 0.00 0.00 0.00 35 1012.8
20260905220057 38 208 9.7 17.7 0.00 0.00 0.00 35 1012.6
20260905214553 37 217 6.4 19.3 0.00 0.00 0.00 37 1012.4
20260905213105 36 182 3.2 11.3 0.00 0.00 0.00 38 1012.6
20260905211558 37 175 11.3 17.7 0.00 0.00 0.00 37 1012.9
20260905210057 37 181 1.6 16.1 0.00 0.00 0.00 38 1013.1
20260905204552 37 206 9.7 17.7 0.00 0.00 0.00 38 1013.5
20260905203104 36 165 11.3 24.1 0.00 0.00 0.00 39 1013.9
20260905201605 37 219 6.4 16.1 0.00 0.00 0.00 39 1014.0